Challis, ID

11:15 PM MST on February 20, 2018 (GMT -0700)
Challis

Weather History for KLLJ - April, 2013

Change the Weather History Date:

Sunday, April 7, 2013

  Actual Average Record
Temperature  
Mean Temperature 43 °F 42 °F  
Max Temperature 52 °F 55 °F 75 °F (1930)
Min Temperature 33 °F 28 °F 14 °F (1948)
Degree Days  
Heating Degree Days 22 23  
Month to date heating degree days 120 167  
Since 1 July heating degree days 6720 7112  
Cooling Degree Days 0 0  
Month to date cooling degree days 0 0  
Year to date cooling degree days 0 0  
Moisture  
Dew Point 26 °F    
Average Humidity 47    
Maximum Humidity 64    
Minimum Humidity 30    
Precipitation  
Precipitation T in 0.03 in 0.20 in (1896)
Month to date precipitation 0.01 0.15  
Year to date precipitation 0.46 1.99  
Sea Level Pressure  
Sea Level Pressure 29.65 in    
Wind  
Wind Speed 7 mph (WNW)    
Max Wind Speed 25 mph    
Max Gust Speed 35 mph    
Visibility 10 miles    
Events Rain    
T = Trace of Precipitation, MM = Missing Value Source: NWS Daily Summary

Daily Weather History Graph

Daily Weather History Graph

Search for Another Location

Airport or City:

Trip Planner

Search our weather history database for the weather conditions in past years. The results will help you decide how hot, cold, wet, or windy it might be!

Date:

Astronomy

Apr. 07, 2013 Rise Set
Actual Time 7:06 AM MDT 8:12 PM MDT
Civil Twilight 6:36 AM MDT 8:42 PM MDT
Nautical Twilight 6:01 AM MDT 9:17 PM MDT
Astronomical Twilight 5:23 AM MDT 9:55 PM MDT
Moon 5:32 AM MDT (4/7) 5:43 PM MDT (4/7)
Length of Visible Light 14h 05m
Length of Day
13h 05m
Waning Crescent, 8% of the Moon is Illuminated
Apr 7
Waning Crescent
Apr 10
New
Apr 18
First Quarter
Apr 25
Full
May 2
Last Quarter

Hourly Weather History & Observations

Time (MDT) Temp. Windchill Dew Point Humidity Pressure Visibility Wind Dir Wind Speed Gust Speed Precip Events Conditions
1:55 AM 36.0 °F - 23.0 °F 59% 29.80 in 10.0 mi Calm Calm - N/A   Mostly Cloudy
2:55 AM 36.0 °F - 23.0 °F 59% 29.75 in 10.0 mi Calm Calm - N/A   Partly Cloudy
3:55 AM 33.1 °F - 21.0 °F 61% 29.73 in 10.0 mi Calm Calm - N/A   Scattered Clouds
4:55 AM 34.0 °F - 21.9 °F 61% 29.72 in 10.0 mi Calm Calm - N/A   Overcast
6:55 AM 36.0 °F - 24.1 °F 62% 29.70 in 10.0 mi Calm Calm - N/A   Overcast
7:55 AM 36.0 °F - 25.0 °F 64% 29.69 in 10.0 mi Calm Calm - N/A   Overcast
8:55 AM 39.9 °F 36.7 °F 28.0 °F 63% 29.69 in 10.0 mi SSE 4.6 mph - 0.00 in Rain Light Rain
9:55 AM 46.0 °F 39.9 °F 30.0 °F 54% 29.63 in 10.0 mi South 13.8 mph - 0.00 in   Overcast
10:55 AM 48.0 °F - 28.9 °F 48% 29.63 in 10.0 mi South 19.6 mph 27.6 mph N/A   Overcast
11:55 AM 46.9 °F - 30.9 °F 54% 29.62 in 10.0 mi Variable 6.9 mph 16.1 mph 0.00 in Rain Light Rain
12:55 PM 48.9 °F - 28.9 °F 46% 29.60 in 10.0 mi NW 15.0 mph 21.9 mph 0.00 in   Mostly Cloudy
1:13 PM 48.2 °F - 28.4 °F 46% 29.63 in 10.0 mi Variable 3.5 mph 20.7 mph 0.00 in Rain Light Rain
1:55 PM 51.1 °F - 21.0 °F 31% 29.56 in 10.0 mi SW 17.3 mph 23.0 mph 0.00 in   Partly Cloudy
2:26 PM 48.2 °F - 24.8 °F 40% 29.63 in 10.0 mi WNW 15.0 mph 25.3 mph N/A   Mostly Cloudy
2:55 PM 39.0 °F 30.3 °F 34.0 °F 82% 29.64 in 9.0 mi NW 16.1 mph 28.8 mph 0.00 in Rain Light Rain
3:55 PM 46.0 °F 43.1 °F 32.0 °F 58% 29.60 in 10.0 mi WNW 5.8 mph - 0.00 in   Overcast
4:55 PM 48.0 °F - 25.0 °F 41% 29.59 in 10.0 mi Calm Calm - 0.00 in   Overcast
5:55 PM 48.0 °F - 24.1 °F 39% 29.60 in 10.0 mi SSW 10.4 mph - N/A   Scattered Clouds
6:20 PM 48.2 °F - 24.8 °F 40% 29.63 in 10.0 mi West 15.0 mph - N/A   Partly Cloudy
6:55 PM 48.0 °F - 19.0 °F 32% 29.59 in 10.0 mi WNW 13.8 mph 18.4 mph N/A   Mostly Cloudy
7:55 PM 39.9 °F 34.5 °F 26.1 °F 58% 29.63 in 10.0 mi NW 8.1 mph - N/A   Mostly Cloudy
8:55 PM 39.0 °F 32.8 °F 26.1 °F 60% 29.63 in 10.0 mi NW 9.2 mph - N/A   Mostly Cloudy
9:55 PM 37.9 °F 34.4 °F 26.1 °F 62% 29.63 in 10.0 mi NW 4.6 mph - N/A   Overcast
10:55 PM 39.0 °F 35.7 °F 26.1 °F 60% 29.62 in 10.0 mi NNE 4.6 mph - N/A   Mostly Cloudy
11:55 PM 37.9 °F 31.5 °F 27.0 °F 65% 29.61 in 10.0 mi North 9.2 mph - N/A   Overcast